30.06.2024;16:00;9
30.06.2024;15:00;8
30.06.2024;14:00;8
30.06.2024;13:00;9
30.06.2024;12:00;11
30.06.2024;11:00;12
30.06.2024;10:00;16
30.06.2024;09:00;19
30.06.2024;08:00;25
30.06.2024;07:00;31
30.06.2024;06:00;40
30.06.2024;05:00;42
30.06.2024;04:00;44
30.06.2024;03:00;50
30.06.2024;02:00;45
30.06.2024;01:00;37
29.06.2024;24:00;36
29.06.2024;23:00;31
29.06.2024;22:00;31
29.06.2024;21:00;28
29.06.2024;20:00;23
29.06.2024;19:00;21
29.06.2024;18:00;23
29.06.2024;17:00;25
29.06.2024;16:00;22
29.06.2024;15:00;20
29.06.2024;14:00;18
29.06.2024;13:00;17
29.06.2024;12:00;19
29.06.2024;11:00;19
29.06.2024;10:00;19
29.06.2024;09:00;23
29.06.2024;08:00;28
29.06.2024;07:00;27
29.06.2024;06:00;29
29.06.2024;05:00;30
29.06.2024;04:00;32
29.06.2024;03:00;31
29.06.2024;02:00;33
29.06.2024;01:00;34
28.06.2024;24:00;32
28.06.2024;23:00;26
28.06.2024;22:00;20
28.06.2024;21:00;19
28.06.2024;20:00;20
28.06.2024;19:00;13
28.06.2024;18:00;12
28.06.2024;17:00;14
28.06.2024;16:00;15
28.06.2024;15:00;15
28.06.2024;14:00;13
28.06.2024;13:00;10
28.06.2024;12:00;11
28.06.2024;11:00;10
28.06.2024;10:00;10
28.06.2024;09:00;9
28.06.2024;08:00;10
28.06.2024;07:00;16
28.06.2024;06:00;17
28.06.2024;05:00;19
28.06.2024;04:00;20
28.06.2024;03:00;17
28.06.2024;02:00;16
28.06.2024;01:00;17
27.06.2024;24:00;13
27.06.2024;23:00;16
27.06.2024;22:00;12
27.06.2024;21:00;13
27.06.2024;20:00;15
27.06.2024;19:00;18
27.06.2024;18:00;17
27.06.2024;17:00;17
27.06.2024;16:00;15
27.06.2024;15:00;12
27.06.2024;14:00;9
27.06.2024;13:00;10
27.06.2024;12:00;12
27.06.2024;11:00;13
27.06.2024;10:00;9
27.06.2024;09:00;12
27.06.2024;08:00;13
27.06.2024;07:00;12
27.06.2024;06:00;11
27.06.2024;05:00;13
27.06.2024;04:00;13
27.06.2024;03:00;11
27.06.2024;02:00;12
27.06.2024;01:00;13
26.06.2024;24:00;17
26.06.2024;23:00;12
26.06.2024;22:00;14
26.06.2024;21:00;16
26.06.2024;20:00;17
26.06.2024;19:00;15
26.06.2024;18:00;21
26.06.2024;17:00;26
26.06.2024;16:00;26
26.06.2024;15:00;29
26.06.2024;14:00;29
26.06.2024;13:00;28
26.06.2024;12:00;25
26.06.2024;11:00;22
26.06.2024;10:00;24
26.06.2024;09:00;24
26.06.2024;08:00;23
26.06.2024;07:00;20
26.06.2024;06:00;23
26.06.2024;05:00;24
26.06.2024;04:00;26
26.06.2024;03:00;26
26.06.2024;02:00;27
26.06.2024;01:00;25
25.06.2024;24:00;25
25.06.2024;23:00;28
25.06.2024;22:00;21
25.06.2024;21:00;20
25.06.2024;20:00;22
25.06.2024;19:00;22
25.06.2024;18:00;20
25.06.2024;17:00;18
25.06.2024;16:00;19
25.06.2024;15:00;17
25.06.2024;14:00;16
25.06.2024;13:00;15
25.06.2024;12:00;14
25.06.2024;11:00;13
25.06.2024;10:00;13
25.06.2024;09:00;15
25.06.2024;08:00;18
25.06.2024;07:00;18
25.06.2024;06:00;15
25.06.2024;05:00;13
25.06.2024;04:00;14
25.06.2024;03:00;15
25.06.2024;02:00;16
25.06.2024;01:00;16
